This is the latest recevied weather packets stored in our database for station/object KX4O-13. If no packets are shown the sender has not sent any weather packets the latest 10 day(s).
| Time | Temp. | Humidity | Pressure | Rain* | Wind** | Luminosity | Snow |
|---|---|---|---|---|---|---|---|
| 1777569661 | 17.78° C | 53% | 1008.7 hPa | 0 mm | - | 207 W/m² | - |
| 1777569361 | 18.33° C | 53% | 1008.8 hPa | 0 mm | - | 309 W/m² | - |
| 1777569061 | 17.78° C | 49% | 1008.9 hPa | 0 mm | - | 309 W/m² | - |
| 1777568761 | 18.89° C | 46% | 1008.9 hPa | 0 mm | - | 763 W/m² | - |
| 1777568461 | 19.44° C | 51% | 1008.9 hPa | 0 mm | - | 1018 W/m² | - |
| 1777568161 | 18.89° C | 50% | 1009 hPa | 0 mm | - | 942 W/m² | - |
| 1777567861 | 18.89° C | 49% | 1009 hPa | 0 mm | - | 923 W/m² | - |
| 1777567561 | 17.78° C | 52% | 1009.1 hPa | 0 mm | - | 963 W/m² | - |
| 1777567261 | 17.22° C | 53% | 1009.3 hPa | 0 mm | - | 213 W/m² | - |
| 1777566961 | 18.33° C | 51% | 1009.2 hPa | 0 mm | - | 260 W/m² | - |
| 1777566661 | 17.78° C | 52% | 1009.2 hPa | 0 mm | - | 947 W/m² | - |
| 1777566361 | 17.22° C | 55% | 1009.3 hPa | 0 mm | - | 160 W/m² | - |
| 1777566061 | 17.78° C | 52% | 1009.3 hPa | 0 mm | - | 940 W/m² | - |
| 1777565761 | 18.33° C | 51% | 1009.3 hPa | 0 mm | - | 940 W/m² | - |
| 1777565461 | 18.33° C | 53% | 1009.3 hPa | 0 mm | - | 958 W/m² | - |
| 1777565161 | 18.33° C | 54% | 1009.4 hPa | 0 mm | - | 898 W/m² | - |
| 1777564861 | 18.33° C | 56% | 1009.4 hPa | 0 mm | - | 912 W/m² | - |
| 1777564561 | 18.33° C | 61% | 1009.5 hPa | 0 mm | - | 861 W/m² | - |
| 1777564261 | 17.78° C | 57% | 1009.5 hPa | 0 mm | - | 847 W/m² | - |
| 1777563961 | 17.22° C | 62% | 1009.5 hPa | 0 mm | - | 833 W/m² | - |
| 1777563661 | 16.67° C | 62% | 1009.6 hPa | 0 mm | - | 276 W/m² | - |
| 1777563361 | 16.11° C | 62% | 1009.8 hPa | 0 mm | - | 276 W/m² | - |
| 1777563061 | 16.11° C | 62% | 1009.9 hPa | 0 mm | - | 276 W/m² | - |
| 1777562761 | 16.67° C | 62% | 1010 hPa | 0 mm | - | 417 W/m² | - |
| 1777562461 | 16.11° C | 64% | 1009.9 hPa | 0 mm | - | 399 W/m² | - |
* Rain latest hour (hover to see other rain measurements)
** Current wind speed in m/s (hover to see current wind gust speed)